Zurück zum Katalog

SL-14 DEB

AktivPO
NORAD 45307·DEBRIS·🇷🇺 Russia

Gestartet Aug 15, 1991 von Plesetsk Cosmodrome

Loading…

Nächste Überflüge (nächste 24 Stunden)

TLE

AktuellSource: Space-Track

Epoche: Sep 14, 2026, 03:00 UTC

1 45307U 91056AV  26257.12543425 -.00000590  00000-0 -15637-2 0  9998
2 45307  82.6099 142.8986 0239427 296.0321  61.6320 13.07257977310104

Verfolge SL-14 DEB in Echtzeit mit AllMySat

Download on the App Store